{"data":{"norad_id":69458,"epoch":"2026-09-20T04:53:26.300832Z","epoch_age_seconds":51010,"freshness":"FRESH","line1":"1 69458U 26127R   26263.20377663  .00019823  00000+0  59601-3 0  9999","line2":"2 69458  53.1585 167.3072 0001331  95.1419 264.9735 15.34413440 16141","mean_motion":15.3441344,"eccentricity":0.0001331,"inclination_deg":53.1585,"raan_deg":167.3072,"arg_perigee_deg":95.1419,"mean_anomaly_deg":264.9735,"bstar":0.00059601,"rev_number":1614,"period_min":93.846936064376,"perigee_km":461.7527834672,"apogee_km":463.57380450546,"semimajor_km":6840.8002939863,"source":"CELESTRAK","updated_at":"2026-09-20T09:00:44.201691Z"}}